Regional Weather Roundup
Issued by NWS

Home | Current Version | Previous Version | Text Only | Print | Product List | Glossary Off
Versions: 1 2 3 4 5 6 7 8 9 10 11 12 13 14 15 16 17 18 19 20 21 22 23 24 25 26 27 28 29 30 31 32 33 34 35 36 37 38 39 40 41 42 43 44 45 46 47 48 49 50

000
ASUS43 KOAX 180110
RWRNE

WEATHER ROUNDUP FOR NEBRASKA
NATIONAL WEATHER SERVICE OMAHA NE
800 PM CDT FRI APR 17 2015

NOTES: SATELLITE DATA IS BEING USED TO AUGMENT CLOUD COVER ABOVE
       12000 FEET.
       "FAIR" INDICATES FEW OR NO CLOUDS BELOW 12,000 FEET WITH NO
       SIGNIFICANT WEATHER AND/OR OBSTRUCTIONS TO VISIBILITY.

  * THESE STATIONS DO NOT REPORT WEATHER SUCH AS RAIN...SNOW OR FOG.

NEZ001>004-019>022-054>056-180200-
NEBRASKA PANHANDLE

CITY           SKY/WX    TMP DP  RH WIND       PRES   REMARKS
SCOTTSBLUFF    LGT RAIN  45  45 100 NW17      30.03F FOG
ALLIANCE       LGT RAIN  48  47  96 E16       30.03S FOG
CHADRON        LGT RAIN  46  44  93 NE14      30.08F FOG
KIMBALL        DRIZZLE   42  41  95 N15       30.00F
SIDNEY         CLOUDY    51  50  96 E10       29.99S FOG
$$

NEZ057>060-069>072-079>082-180200-
SOUTHWEST NEBRASKA

CITY           SKY/WX    TMP DP  RH WIND       PRES   REMARKS
NORTH PLATTE   CLOUDY    59  54  83 E14       29.98S
IMPERIAL       MOCLDY    59  50  72 E8        29.93F
LEXINGTON      PTCLDY    62  57  84 E12       29.97S
MCCOOK         PTCLDY    64  52  64 E12       29.92F
OGALLALA       MOCLDY    55  54  95 NE10      29.97F FOG
$$

NEZ005>010-023>029-035>040-094-180200-
NORTH CENTRAL NEBRASKA

CITY           SKY/WX    TMP DP  RH WIND       PRES   REMARKS
VALENTINE      LGT RAIN  54  51  90 NE8       30.06F
AINSWORTH      CLOUDY    54  53  94 NE8       30.05S
BROKEN BOW     MOCLDY    59  54  83 NE15      30.00S
O`NEILL        MOCLDY    62  49  62 N8        30.04F
ORD            CLOUDY    60  53  77 N8        29.99F
THEDFORD       CLOUDY    54  53  96 E13       30.04S FOG
$$

NEZ041-046>049-061>064-073>077-083>087-180200-
SOUTH CENTRAL NEBRASKA

CITY           SKY/WX    TMP DP  RH WIND       PRES   REMARKS
GRAND ISLAND   MOCLDY    63  54  72 SE6       29.99F
AURORA         PTCLDY    64  56  75 SE12      29.99S
HASTINGS       PTCLDY    64  53  67 E9        29.97F
HEBRON         PTCLDY    65  56  73 E5        29.97S
HOLDREGE       PTCLDY    62  55  78 E9        29.97S
KEARNEY *      MOCLDY    61  55  82 E8        29.98F
YORK           LGT RAIN  63  57  82 S6        29.99S
$$

NEZ011>018-030>034-042>045-180200-
NORTHEAST NEBRASKA

CITY           SKY/WX    TMP DP  RH WIND       PRES   REMARKS
ALBION         CLOUDY    66  49  54 NE6       30.00S
BLAIR          CLOUDY    70  51  50 E3        29.99S
COLUMBUS *     MOCLDY    70  52  52 E5        30.01S
FREMONT        CLOUDY    73  50  45 E3        29.99S
TEKAMAH        CLOUDY    72  51  47 E5        29.98S
WAYNE          CLOUDY    69  50  50 SW5       30.02R
$$

NEZ050>053-065>068-078-088>093-180200-
SOUTHEAST NEBRASKA

CITY           SKY/WX    TMP DP  RH WIND       PRES   REMARKS
LINCOLN        CLOUDY    69  55  60 SE5       29.99R
OMAHA EPPLEY   CLOUDY    74  52  46 E6        29.98R
BEATRICE       CLOUDY    66  55  66 E6        29.97F
FALLS CITY     CLOUDY    70  57  63 CALM      29.96S
NEBRASKA CITY  CLOUDY    66  52  59 NE8       29.99S
PLATTSMOUTH    CLOUDY    70  50  48 SE5       29.99S
$$

NEZ044-045-051>053-067-180200-
OMAHA AREA

CITY           SKY/WX    TMP DP  RH WIND       PRES   REMARKS
OMAHA EPPLEY   CLOUDY    74  52  46 E6        29.98R
BLAIR          CLOUDY    70  51  50 E3        29.99S
FREMONT        CLOUDY    73  50  45 E3        29.99S
MILLARD        CLOUDY    73  54  51 SE3       29.98S
OFFUTT AFB     CLOUDY    69  54  57 E5        29.97S
PLATTSMOUTH    CLOUDY    70  50  48 SE5       29.99S
WAHOO          CLOUDY    70  51  51 SE5       29.99R
$$



USA.gov is the U.S. government's official web portal to all federal, state and local government web resources and services.